Regional Weather Roundup
Issued by NWS

Home | Current Version | Previous Version | Text Only | Print | Product List | Glossary Off
Versions: 1 2 3 4 5 6 7 8 9 10 11 12 13 14 15 16 17 18 19 20 21 22 23 24 25 26 27 28 29 30 31 32 33 34 35 36 37 38 39 40 41 42 43 44 45 46 47 48 49 50

776
ASUS44 KLIX 181505
RWRLA
LOUISIANA WEATHER ROUNDUP
NATIONAL WEATHER SERVICE NEW ORLEANS LA
1000 AM CDT THU SEP 18 2014

NOTE: "FAIR" INDICATES FEW OR NO CLOUDS BELOW 12,000 FEET WITH NO
      SIGNIFICANT WEATHER AND/OR OBSTRUCTIONS TO VISIBILITY.
      SKY/WX - SKY CONDITION AND SIGNIFICANT WEATHER.
      TMP - AIR TEMPERATURE.    DP   - DEWPOINT TEMPERATURE.
      RH  - RELATIVE HUMIDITY.  PRES - PRESSURE.
      HX  - HEAT INDEX.         WCI  - WIND CHILL INDEX.

*  THESE STATIONS ARE NOT NWS OR FAA STATIONS AND ARE NOT UNDER
   NWS QUALITY CONTROL.

LAZ040-048-061>063-065-066-069-181600-
SOUTHEAST LOUISIANA

CITY           SKY/WX    TMP DP  RH WIND       PRES   REMARKS
N.O. AUDUBON     N/A     87  74  65 MISG        N/A  HX  95
N.O. INTL ARPT PTSUNNY   83  74  74 NE7       29.95R
N.O. LAKEFRONT MOSUNNY   83  73  72 E6        29.96R
N.O. DOWNTOWN* FAIR      84  72  65 E5        29.96R
SLIDELL        PTSUNNY   84  74  71 N3        29.95R
BATON ROUGE    CLOUDY    77  73  87 NE6       29.95S
BOOTHVILLE     MOSUNNY   85  75  72 E6        29.95R
BELLE CHASSE   PTSUNNY   84  73  69 E7        29.94R
BOGALUSA*      FAIR      82  73  75 CALM      29.96F
GALLIANO*      NOT AVBL
NEW ROADS*     FAIR      75  73  95 CALM      29.95S
GONZALES*      FAIR      80  78  95 CALM      29.94S
HAMMOND*       CLOUDY    82  72  69 CALM      29.97R
HOUMA*         MOSUNNY  N/A N/A N/A NE7       29.95R
PORT FOURCHON* SUNNY     82  73  74 CALM      29.98S

$$

LAZ041-044-053-054-181600-
SOUTHWEST LOUISIANA

CITY           SKY/WX    TMP DP  RH WIND       PRES   REMARKS
LAKE CHARLES   CLOUDY    77  75  93 E6        29.92F
LAFAYETTE      CLOUDY    79  76  90 NE3       29.95R
PATTERSON      CLOUDY    79  75  89 NE6       29.97R
SALT POINT       N/A     82  76  81 VRB3      29.93S
NEW IBERIA     CLOUDY    80  75  84 NE6       29.95S
CHENAULT AIRPK NOT AVBL

$$

LAZ027-028-181600-
CENTRAL LOUISIANA

CITY           SKY/WX    TMP DP  RH WIND       PRES   REMARKS
FORT POLK      CLOUDY    76  73  91 CALM      29.94S
ALEXANDRIA INT CLOUDY    78  73  84 CALM      29.93S
ALEXANDRIA     CLOUDY    80  74  81 CALM      29.95R

$$

LAZ001-002-181600-
NORTHWEST LOUISIANA

CITY           SKY/WX    TMP DP  RH WIND       PRES   REMARKS
SHREVEPORT     CLOUDY    78  72  81 VRB3      29.94R
BARKSDALE AFB  CLOUDY    77  72  83 VRB1      29.95R
DTN SHREVEPORT CLOUDY    78  72  81 CALM      29.94R

$$

LAZ014-016-181600-
NORTHEAST LOUISIANA

CITY           SKY/WX    TMP DP  RH WIND       PRES   REMARKS
MONROE         PTSUNNY   81  73  76 CALM      29.95R
TALLULAH       PTSUNNY   82  73  74 N3        29.96R

$$




USA.gov is the U.S. government's official web portal to all federal, state and local government web resources and services.